Skip Page Navigation
NASA JPL Caltech
NASA Logo - Jet Propulsion Laboratory + View the NASA Portal
+ Near-Earth Object (NEO) Program
Search JPL
JPL Home Earth Solar System Stars & Galaxies Technology
JPL Solar System Dynamics
BODIES ORBITS EPHEMERIDES TOOLS PHYSICAL DATA DISCOVERY FAQ SITE MAP
JPL Small-Body Database Browser
Search: [ help ]  
3825 Nurnberg (1967 UR)
Classification: Main-belt Asteroid          SPK-ID: 2003825
Ephemeris | Orbit Diagram | Orbital Elements | Physical Parameters | Discovery Circumstances ]

[ show orbit diagram ]
Orbital Elements at Epoch 2457000.5 (2014-Dec-09.0) TDB
Reference: JPL 9 (heliocentric ecliptic J2000)
 Element Value Uncertainty (1-sigma)   Units 
e .09509447489223151 5.8013e-08  
a 2.240802394415197 1.2548e-08 AU
q 2.027714467381029 1.2826e-07 AU
i 5.147424671186006 5.6928e-06 deg
node 75.24814230522828 7.9646e-05 deg
peri 145.4155401420832 8.8668e-05 deg
M 229.4857021668524 4.1238e-05 deg
tp 2457444.680365508719
(2016-Feb-26.18036551)
0.00014129 JED
period 1225.190911937977
3.35
1.0291e-05
2.818e-08
d
yr
n .2938317583751588 2.4681e-09 deg/d
Q 2.453890321449365 1.3741e-08 AU
  Orbit Determination Parameters
   # obs. used (total)      1124  
   data-arc span      22782 days (62.37 yr)  
   first obs. used      1952-04-18  
   last obs. used      2014-09-02  
   planetary ephem.      DE431  
   SB-pert. ephem.      SB431-BIG16  
   condition code      0  
   fit RMS      .4879  
   data source      ORB  
   producer      Otto Matic  
   solution date      2014-Sep-12 13:44:32  

Additional Information
 Earth MOID = 1.02278 AU 
 T_jup = 3.623 
[ show covariance matrix ]

Ephemeris | Orbit Diagram | Orbital Elements | Physical Parameters | Discovery Circumstances ]

Physical Parameter Table
Parameter Symbol Value Units Sigma Reference Notes
absolute magnitude H 12.7 mag n/a MPO265977  
rotation period rot_per 4.0301 h n/a Asteroid Lightcurve DataBase (Rev. 2014-Mar-01) Published Reference List:
[Behrend, R. (2009) Observatoire de Geneve web site, http://obswww.unige.ch/~behrend/page_cou.html]
[Pravec, P.; Wolf, M.; Sarounova, L. (2009) http://www.asu.cas.cz/~ppravec/neo.htm]

3825 Nürnberg           Discovered 1967 Oct. 30 by L. Kohoutek at Bergedorf.
In medieval times, the northern Bavarian city of Nürnberg was the residence of famous scholars such as Dürer, Stoss and Regiomontanus. This minor planet is being named on the occasion of the inauguration of a new 0.6-m telescope at the Nürnberg Observatory in Oct. 2004. The name was suggested by E. Wunder.
NOTE: some special characters may not display properly (any characters within {} are an attempt to place the proper accent above a character)
Reference: 20040928/MPCPages.arcLast Updated: 2004-09-28

Alternate Designations
 1967 UR = 1935 ED = 1952 HJ = 1973 SE5 = 1975 BQ1 = 1980 TN11 = 1983 RD4 = A915 GA 
Ephemeris | Orbit Diagram | Orbital Elements | Physical Parameters | Discovery Circumstances ]
ABOUT SSD CREDITS/AWARDS PRIVACY/COPYRIGHT GLOSSARY LINKS
FirstGov 2014-Nov-01 08:25 UT
(server date/time)  
NASA Home Page
Site Manager:   Donald K. Yeomans
Webmaster  Alan B. Chamberlin